timestamp,wind_dir_avg,wind_spd_avg,wind_spd_max_dir,wind_spd_gust,battery_voltage,lat,long
2023-03-22 00:04:00+00:00,306.0,9.5,300.0,12.27,12.41,47.59359,-54.27349
2023-03-22 00:14:01+00:00,302.0,7.88,292.0,11.06,12.33,47.59359,-54.27349
2023-03-22 00:24:01+00:00,304.0,8.3,302.0,11.98,12.33,47.59359,-54.27349
2023-03-22 00:34:01+00:00,296.0,10.32,297.0,12.07,12.33,47.59359,-54.27349
2023-03-22 00:44:01+00:00,314.0,8.64,302.0,12.54,12.33,47.59359,-54.27349
2023-03-22 00:54:01+00:00,300.0,8.27,295.0,10.69,12.33,47.59359,-54.27349
2023-03-22 01:04:01+00:00,302.0,5.52,285.0,10.39,12.33,47.59359,-54.27349
2023-03-22 01:14:00+00:00,292.0,7.27,285.0,10.52,12.25,47.59359,-54.27349
2023-03-22 01:24:00+00:00,295.0,8.03,287.0,10.75,12.25,47.59359,-54.27349
2023-03-22 01:34:00+00:00,307.0,6.13,295.0,8.79,12.25,47.59359,-54.27349
2023-03-22 01:44:00+00:00,318.0,5.95,305.0,7.23,12.25,47.59359,-54.27349
2023-03-22 01:54:00+00:00,303.0,9.31,302.0,11.62,12.25,47.59359,-54.27349
2023-03-22 02:04:00+00:00,301.0,9.85,298.0,11.4,12.25,47.59359,-54.27349
2023-03-22 02:14:01+00:00,304.0,8.94,298.0,11.71,12.25,47.59359,-54.27349
2023-03-22 02:24:01+00:00,307.0,8.94,300.0,11.49,12.25,47.59359,-54.27349
2023-03-22 02:34:01+00:00,302.0,8.78,298.0,10.95,12.25,47.59359,-54.27349
2023-03-22 02:44:01+00:00,298.0,10.87,302.0,12.31,12.25,47.59359,-54.27349
2023-03-22 02:54:01+00:00,295.0,10.86,299.0,11.85,12.25,47.59359,-54.27349
2023-03-22 03:04:01+00:00,291.0,9.85,290.0,11.43,12.25,47.59359,-54.27349
2023-03-22 03:14:01+00:00,293.0,10.96,292.0,11.77,12.25,47.59359,-54.27349
2023-03-22 03:24:01+00:00,288.0,10.08,294.0,11.47,12.25,47.59359,-54.27349
2023-03-22 03:34:01+00:00,292.0,10.12,293.0,11.58,12.25,47.59359,-54.27349
2023-03-22 03:44:01+00:00,295.0,10.65,296.0,11.78,12.25,47.59359,-54.27349
2023-03-22 03:54:01+00:00,297.0,10.69,297.0,11.77,12.25,47.59359,-54.27349
2023-03-22 04:04:01+00:00,290.0,9.67,293.0,11.45,12.25,47.59359,-54.27349
2023-03-22 04:14:01+00:00,291.0,10.19,289.0,11.29,12.17,47.59359,-54.27349
2023-03-22 04:24:01+00:00,290.0,9.84,286.0,11.48,12.17,47.59359,-54.27349
2023-03-22 04:34:01+00:00,301.0,10.77,302.0,11.93,12.17,47.59359,-54.27349
2023-03-22 04:44:01+00:00,304.0,10.15,300.0,11.55,12.17,47.59359,-54.27349
2023-03-22 04:54:01+00:00,297.0,9.8,294.0,11.25,12.17,47.59359,-54.27349
2023-03-22 05:04:01+00:00,296.0,9.44,297.0,11.48,12.17,47.59359,-54.27349
2023-03-22 05:14:00+00:00,311.0,7.98,302.0,11.41,12.17,47.59359,-54.27349
2023-03-22 05:24:00+00:00,302.0,9.88,302.0,11.53,12.17,47.59359,-54.27349
2023-03-22 05:34:00+00:00,308.0,7.84,299.0,10.95,12.17,47.59359,-54.27349
2023-03-22 05:44:00+00:00,301.0,8.86,298.0,10.65,12.17,47.59359,-54.27349
2023-03-22 05:54:00+00:00,317.0,6.21,323.0,7.99,12.17,47.59359,-54.27349
2023-03-22 06:04:00+00:00,313.0,6.21,306.0,8.77,12.17,47.59359,-54.27349
2023-03-22 06:14:00+00:00,319.0,7.41,303.0,9.91,12.17,47.59359,-54.27349
2023-03-22 06:24:00+00:00,305.0,4.87,314.0,6.33,12.17,47.59359,-54.27349
2023-03-22 06:34:00+00:00,272.0,2.49,273.0,3.64,12.17,47.59359,-54.27349
2023-03-22 06:44:00+00:00,287.0,1.41,280.0,3.04,12.17,47.59359,-54.27349
2023-03-22 06:54:00+00:00,303.0,2.84,318.0,5.09,12.17,47.59359,-54.27349
2023-03-22 07:04:00+00:00,310.0,1.0,304.0,2.24,12.17,47.59359,-54.27349
2023-03-22 07:14:00+00:00,318.0,6.01,323.0,7.88,12.09,47.59359,-54.27349
2023-03-22 07:24:00+00:00,318.0,6.8,323.0,7.83,12.09,47.59359,-54.27349
2023-03-22 07:34:00+00:00,321.0,9.05,322.0,10.31,12.09,47.59359,-54.27349
2023-03-22 07:44:00+00:00,317.0,8.08,311.0,9.35,12.09,47.59359,-54.27349
2023-03-22 07:54:00+00:00,318.0,5.36,319.0,7.06,12.09,47.59359,-54.27349
2023-03-22 08:04:00+00:00,315.0,8.72,312.0,10.41,12.09,47.59359,-54.27349
2023-03-22 08:14:00+00:00,312.0,6.71,311.0,8.84,12.09,47.59359,-54.27349
2023-03-22 08:24:00+00:00,313.0,8.43,310.0,9.45,12.09,47.59359,-54.27349
2023-03-22 08:34:00+00:00,305.0,7.9,311.0,9.63,12.09,47.59359,-54.27349
2023-03-22 08:44:00+00:00,306.0,7.25,305.0,8.28,12.09,47.59359,-54.27349
2023-03-22 08:54:00+00:00,306.0,6.95,304.0,7.78,12.09,47.59359,-54.27349
2023-03-22 09:04:00+00:00,301.0,7.23,295.0,8.42,12.09,47.59359,-54.27349
2023-03-22 09:14:00+00:00,306.0,6.64,307.0,8.05,12.09,47.59359,-54.27349
2023-03-22 09:24:00+00:00,310.0,5.91,311.0,6.4,12.09,47.59359,-54.27349
2023-03-22 09:34:00+00:00,306.0,7.22,306.0,8.74,12.09,47.59359,-54.27349
2023-03-22 09:44:00+00:00,319.0,6.23,320.0,7.17,12.09,47.59359,-54.27349
2023-03-22 09:54:00+00:00,307.0,5.63,308.0,6.5,12.09,47.59359,-54.27349
2023-03-22 10:04:00+00:00,290.0,6.57,287.0,7.74,12.09,47.59359,-54.27349
2023-03-22 10:14:00+00:00,303.0,6.92,301.0,7.52,12.09,47.59359,-54.27349
2023-03-22 10:24:00+00:00,299.0,6.12,302.0,7.31,12.09,47.59359,-54.27349
2023-03-22 10:34:00+00:00,304.0,5.73,299.0,6.4,12.09,47.59359,-54.27349
2023-03-22 10:44:00+00:00,307.0,4.72,320.0,5.21,12.09,47.59359,-54.27349
2023-03-22 10:54:00+00:00,300.0,4.93,303.0,5.62,12.09,47.59359,-54.27349
2023-03-22 11:04:00+00:00,297.0,5.36,296.0,6.38,12.09,47.59359,-54.27349
2023-03-22 11:14:00+00:00,312.0,3.9,308.0,4.67,13.68,47.59359,-54.27349
2023-03-22 11:24:00+00:00,316.0,3.53,306.0,4.28,13.68,47.59359,-54.27349
2023-03-22 11:34:00+00:00,319.0,3.81,310.0,4.39,13.68,47.59359,-54.27349
2023-03-22 11:44:00+00:00,307.0,4.36,306.0,5.46,13.68,47.59359,-54.27349
2023-03-22 11:54:00+00:00,298.0,3.47,300.0,3.95,13.68,47.59359,-54.27349
2023-03-22 12:04:00+00:00,311.0,4.84,313.0,5.63,13.68,47.59359,-54.27349
2023-03-22 12:14:00+00:00,327.0,5.6,328.0,6.31,14.48,47.59359,-54.27349
2023-03-22 12:24:00+00:00,330.0,4.45,331.0,6.78,14.48,47.59359,-54.27349
2023-03-22 12:34:00+00:00,323.0,4.8,323.0,5.69,14.48,47.59359,-54.27349
2023-03-22 12:44:00+00:00,324.0,4.72,326.0,5.17,14.48,47.59359,-54.27349
2023-03-22 12:54:00+00:00,323.0,5.5,328.0,5.98,14.48,47.59359,-54.27349
2023-03-22 13:04:00+00:00,325.0,4.46,321.0,5.0,14.48,47.59359,-54.27349
2023-03-22 13:14:00+00:00,327.0,4.62,322.0,5.11,14.48,47.59359,-54.27349
2023-03-22 13:24:00+00:00,324.0,4.51,329.0,5.85,14.48,47.59359,-54.27349
2023-03-22 13:34:00+00:00,329.0,4.19,327.0,4.65,14.48,47.59359,-54.27349
2023-03-22 13:44:00+00:00,338.0,3.95,333.0,4.26,14.48,47.59359,-54.27349
2023-03-22 13:54:00+00:00,347.0,3.53,349.0,3.84,14.48,47.59359,-54.27349
2023-03-22 14:04:00+00:00,326.0,1.37,330.0,1.83,14.48,47.59359,-54.27349
2023-03-22 14:14:00+00:00,325.0,2.59,327.0,3.2,13.92,47.59359,-54.27349
2023-03-22 14:24:00+00:00,326.0,2.31,324.0,2.69,13.92,47.59359,-54.27349
2023-03-22 14:34:00+00:00,216.0,2.66,218.0,3.0,13.92,47.59359,-54.27349
2023-03-22 14:44:00+00:00,190.0,2.94,188.0,3.18,13.92,47.59359,-54.27349
2023-03-22 14:54:00+00:00,182.0,2.9,178.0,3.17,13.92,47.59359,-54.27349
2023-03-22 15:04:00+00:00,184.0,2.23,188.0,2.54,13.92,47.59359,-54.27349
2023-03-22 15:14:00+00:00,193.0,1.59,183.0,1.86,13.92,47.59359,-54.27349
2023-03-22 15:24:00+00:00,170.0,1.97,170.0,2.26,13.92,47.59359,-54.27349
2023-03-22 15:34:00+00:00,160.0,2.91,161.0,3.15,13.92,47.59359,-54.27349
2023-03-22 15:44:00+00:00,159.0,2.92,167.0,3.15,13.92,47.59359,-54.27349
2023-03-22 15:54:00+00:00,154.0,2.87,153.0,3.18,13.92,47.59359,-54.27349
2023-03-22 16:04:00+00:00,170.0,3.08,168.0,3.36,13.92,47.59359,-54.27349
2023-03-22 16:14:00+00:00,205.0,4.04,201.0,4.35,13.68,47.59359,-54.27349
2023-03-22 16:24:00+00:00,207.0,4.16,207.0,4.47,13.68,47.59359,-54.27349
2023-03-22 16:34:00+00:00,209.0,4.7,211.0,5.11,13.68,47.59359,-54.27349
2023-03-22 16:44:00+00:00,212.0,5.0,212.0,5.41,13.68,47.59359,-54.27349
2023-03-22 16:54:00+00:00,214.0,6.1,216.0,6.54,13.68,47.59359,-54.27349
2023-03-22 17:04:00+00:00,210.0,5.78,211.0,6.35,13.68,47.59359,-54.27349
2023-03-22 17:14:00+00:00,218.0,7.53,214.0,8.16,13.68,47.59359,-54.27349
2023-03-22 17:24:00+00:00,216.0,8.01,215.0,8.93,13.68,47.59359,-54.27349
2023-03-22 17:34:00+00:00,216.0,7.85,217.0,8.84,13.68,47.59359,-54.27349
2023-03-22 17:44:00+00:00,212.0,8.06,211.0,8.75,13.68,47.59359,-54.27349
2023-03-22 17:54:00+00:00,211.0,7.72,210.0,8.06,13.68,47.59359,-54.27349
2023-03-22 18:04:00+00:00,209.0,6.87,209.0,7.68,13.68,47.59359,-54.27349
2023-03-22 18:14:00+00:00,217.0,7.57,210.0,8.64,14.16,47.59359,-54.27349
2023-03-22 18:24:00+00:00,215.0,7.76,217.0,9.09,14.16,47.59359,-54.27349
2023-03-22 18:34:00+00:00,214.0,9.38,207.0,10.94,14.16,47.59359,-54.27349
2023-03-22 18:44:00+00:00,214.0,9.87,213.0,11.29,14.16,47.59359,-54.27349
2023-03-22 18:54:00+00:00,218.0,7.77,219.0,8.7,14.16,47.59359,-54.27349
2023-03-22 19:04:00+00:00,220.0,6.73,227.0,7.41,14.16,47.59359,-54.27349
2023-03-22 19:14:00+00:00,231.0,6.11,235.0,7.68,13.68,47.59359,-54.27349
2023-03-22 19:24:00+00:00,238.0,6.59,239.0,7.38,13.68,47.59359,-54.27349
2023-03-22 19:34:00+00:00,229.0,5.43,224.0,6.29,13.68,47.59359,-54.27349
2023-03-22 19:44:00+00:00,205.0,3.6,222.0,4.65,13.68,47.59359,-54.27349
2023-03-22 19:54:00+00:00,257.0,5.45,254.0,6.24,13.68,47.59359,-54.27349
2023-03-22 20:04:00+00:00,273.0,6.11,274.0,8.93,13.68,47.59359,-54.27349
2023-03-22 20:14:00+00:00,282.0,4.6,288.0,5.2,13.6,47.59359,-54.27349
2023-03-22 20:24:00+00:00,286.0,4.51,292.0,4.91,13.6,47.59359,-54.27349
2023-03-22 20:34:00+00:00,291.0,4.9,293.0,5.79,13.6,47.59359,-54.27349
2023-03-22 20:44:00+00:00,299.0,5.86,300.0,6.16,13.6,47.59359,-54.27349
2023-03-22 20:54:00+00:00,307.0,4.28,309.0,4.55,13.6,47.59359,-54.27349
2023-03-22 21:04:00+00:00,300.0,3.98,303.0,4.23,13.6,47.59359,-54.27349
2023-03-22 21:14:00+00:00,301.0,4.32,301.0,4.67,13.05,47.59359,-54.27349
2023-03-22 21:24:00+00:00,295.0,4.52,299.0,4.78,13.05,47.59359,-54.27349
2023-03-22 21:34:00+00:00,283.0,3.68,278.0,4.13,13.05,47.59359,-54.27349
2023-03-22 21:44:00+00:00,276.0,3.79,271.0,4.15,13.05,47.59359,-54.27349
2023-03-22 21:54:00+00:00,273.0,3.71,278.0,3.95,13.05,47.59359,-54.27349
2023-03-22 22:04:00+00:00,271.0,3.77,273.0,4.14,13.05,47.59359,-54.27349
2023-03-22 22:14:01+00:00,261.0,3.58,259.0,3.84,12.49,47.59359,-54.27349
2023-03-22 22:24:01+00:00,266.0,3.29,269.0,3.54,12.49,47.59359,-54.27349
2023-03-22 22:34:01+00:00,262.0,3.48,263.0,3.71,12.49,47.59359,-54.27349
2023-03-22 22:44:01+00:00,284.0,3.13,284.0,3.37,12.49,47.59359,-54.27349
2023-03-22 22:54:01+00:00,278.0,3.48,268.0,3.72,12.49,47.59359,-54.27349
2023-03-22 23:04:01+00:00,277.0,3.88,274.0,4.19,12.49,47.59359,-54.27349
2023-03-22 23:14:00+00:00,284.0,4.02,287.0,4.3,12.33,47.59359,-54.27349
2023-03-22 23:24:00+00:00,288.0,4.23,289.0,4.48,12.33,47.59359,-54.27349
2023-03-22 23:34:00+00:00,275.0,3.9,279.0,4.25,12.33,47.59359,-54.27349
2023-03-22 23:44:00+00:00,282.0,4.36,280.0,5.07,12.33,47.59359,-54.27349
2023-03-22 23:54:00+00:00,279.0,4.08,285.0,4.41,12.33,47.59359,-54.27349
